Home   Weather   Nablus   Past weeks

Flag for Palestinian Territories Past Weather in Nablus, West Bank, Palestinian Territories — Yesterday and Last 2 Weeks

Now
61 °F

Clear.


Feels Like: 61 °F
Forecast: 42 / 58 °F
Wind: 7 mph from North

Location: Ben Gurion International Airport

Current Time: Dec 9, 2016 at 5:30:27 pm

Latest Report: Dec 9, 2016 at 4:50 pm


Visibility: 10 mi

Pressure: 30.24 "Hg (28.39 "Hg at 534m altitude)

Humidity: 42%

Dew Point: 37 °F

Location of NablusLocation

Past Weather in Nablus — Graph

°F

Nablus Temperature Yesterday

Maximum temperature yesterday: 70 °F (at 11:50 am)
Minimum temperature yesterday: 48 °F (at 3:20 am)
Average temperature yesterday: 58 °F

High & Low Weather Summary for the Past Weeks

 TemperatureHumidityPressure
High77 °F (Nov 28, 12:50 pm)94% (Dec 2, 12:20 am)30.33 "Hg (Dec 2, 12:20 am)
Low39 °F (Nov 26, 4:20 am)4% (Nov 24, 4:50 pm)29.74 "Hg (Dec 1, 1:50 pm)
Average61 °F52%30.08 "Hg
* Reported Nov 24 4:20 pm — Dec 9 4:20 pm, Nablus, Weather by CustomWeather, © 2016

Note: Actual official high and low records may vary slightly from our data, if they occured in-between our weather recording intervals... More about our weather records

Advertising

Nablus Weather History for the Previous 24 Hours

Scroll right to see more
 ConditionsComfort  
Time TempWeatherWind HumidityBarometerVisibility
4:20 pm
Fri, Dec 9
61 °FSunny.10 mph42%30.24 "Hg10 mi
3:50 pm63 °FSunny.10 mph37%30.24 "Hg10 mi
3:20 pm63 °FSunny.12 mph37%30.24 "Hg10 mi
2:50 pm64 °FSunny.9 mph37%30.24 "Hg10 mi
2:20 pm64 °FSunny.8 mph37%30.24 "Hg10 mi
1:50 pm64 °FSunny.8 mph37%30.24 "Hg10 mi
1:20 pm64 °FSunny.8 mph37%30.24 "Hg10 mi
12:50 pm63 °FSunny.6 mph39%30.24 "Hg10 mi
12:20 pm63 °FSunny.6 mph42%30.24 "Hg10 mi
11:50 am63 °FSunny.8 mph42%30.27 "Hg10 mi
11:20 am61 °FSunny.6 mph45%30.27 "Hg10 mi
10:50 am61 °FSunny.6 mph45%30.30 "Hg10 mi
10:20 am59 °FSunny.7 mph48%30.30 "Hg10 mi
9:50 am57 °FSunny.6 mph51%30.30 "Hg10 mi
9:20 am55 °FSunny.8 mph55%30.33 "Hg10 mi
8:50 am54 °FSunny.8 mph58%30.33 "Hg10 mi
8:20 am54 °FSunny.6 mph58%30.33 "Hg10 mi
7:50 am50 °FSunny.5 mph67%30.30 "Hg10 mi
7:20 am48 °FSunny.5 mph71%30.30 "Hg10 mi
6:20 am50 °FClear.5 mph62%30.30 "Hg10 mi
5:50 am50 °FClear.6 mph67%30.30 "Hg10 mi
5:20 am48 °FClear.6 mph71%30.30 "Hg10 mi
4:50 am50 °FClear.5 mph67%30.27 "Hg10 mi
4:20 am50 °FClear.6 mph67%30.27 "Hg10 mi
3:50 am50 °FClear.8 mph71%30.27 "Hg10 mi
3:20 am50 °FClear.7 mph71%30.30 "Hg10 mi
2:50 am50 °FClear.5 mph71%30.30 "Hg10 mi
2:20 am52 °FClear.3 mph67%30.30 "Hg10 mi
1:50 am52 °FClear.2 mph72%30.27 "Hg10 mi
1:20 am52 °FClear.3 mph72%30.30 "Hg10 mi
12:50 am52 °FClear.9 mph72%30.27 "Hg10 mi
12:20 am52 °FClear.9 mph77%30.27 "Hg10 mi
11:50 pm
Thu, Dec 8
54 °FClear.10 mph72%30.27 "Hg10 mi
11:20 pm54 °FClear.9 mph77%30.27 "Hg10 mi
10:50 pm54 °FClear.9 mph77%30.27 "Hg10 mi
10:20 pm55 °FClear.9 mph77%30.27 "Hg10 mi
9:50 pm55 °FClear.3 mph82%30.27 "Hg10 mi
9:20 pm55 °FClear.2 mph88%30.27 "Hg10 mi
8:50 pm57 °FClear.5 mph77%30.27 "Hg10 mi
8:20 pm57 °FClear.3 mph77%30.24 "Hg10 mi
7:50 pm57 °FPassing clouds.3 mph82%30.24 "HgN/A
7:20 pm57 °FPassing clouds.3 mph82%30.24 "HgN/A
6:50 pm57 °FPassing clouds.6 mph88%30.24 "HgN/A
6:20 pm57 °FPassing clouds.7 mph88%30.24 "HgN/A
5:50 pm57 °FPassing clouds.12 mph88%30.24 "HgN/A
5:20 pm59 °FPassing clouds.13 mph77%30.24 "HgN/A
Weather by CustomWeather, © 2016

See weather overviewHow to use our weather pages